User: anonymous   Login
Location: West Cummington
(42.4920°N, 72.9680°W)
Time: 20:55:03
(UTC-04:00)
Language:

Cosmos 841 Rocket - Orbit

View from above orbital plane
View from above orbital plane
View from above satellite
View from above satellite

Ground track
Ground track

The orbit data is extracted from the following two-line orbital elements,

1  9023U 76069B   17084.92843386 -.00000015 +00000-0 +37534-5 0  9999
2  9023 074.0418 250.4226 0016668 075.7273 284.5731 14.39537100132558
Epoch (UTC): 25 March 2017 22:16:56
Eccentricity: 0.0016668
inclination: 74.0418°
perigee height: 748 km
apogee height: 772 km
right ascension of ascending node: 250.4226°
argument of perigee: 75.7273°
revolutions per day: 14.39537100
mean anomaly at epoch: 284.5731°
orbit number at epoch: 13255

The dashed part of the orbit path shows where the satellite is in the earth's shadow,  

DLR